EW2997 Weather Reports


time (UTC)temp
C
wind
direction
speed
KPH
gust
KPH
rain 1hr
cm
rain 24hr
cm
rain mn
cm
humidity
%
barometer
mb
20260504225028 23 168 9.7 9.7 0.00 0.00 0.00 42 1011.1
20260504222026 22 216 9.7 11.3 0.00 0.00 0.00 43 1011.4
20260504215025 23 246 11.3 12.9 0.00 0.00 0.00 41 1011.4
20260504212022 23 222 4.8 4.8 0.00 0.00 0.00 42 1011.4
20260504205017 22 179 17.7 19.3 0.00 0.00 0.00 41 1011.4
20260504202013 22 307 9.7 9.7 0.00 0.00 0.00 41 1011.7
20260504195011 22 222 3.2 3.2 0.00 0.00 0.00 41 1012.1
20260504192006 22 258 6.4 8.0 0.00 0.00 0.00 40 1012.9
20260504185003 22 198 9.7 11.3 0.00 0.00 0.00 38 1012.9
20260504182000 22 300 9.7 11.3 0.00 0.00 0.00 43 1013.5
20260504174958 21 204 4.8 4.8 0.00 0.00 0.00 47 1013.9
20260504171957 20 210 9.7 9.7 0.00 0.00 0.00 46 1014.5
20260504081915 5 204 0.0 0.0 0.00 0.00 0.00 78 1017.4
20260504044904 4 162 0.0 0.0 0.00 0.00 0.00 77 1018.0
20260504041903 4 144 0.0 0.0 0.00 0.00 0.00 75 1018.4
20260504034901 5 144 0.0 0.0 0.00 0.00 0.00 77 1018.4
20260504031901 5 186 0.0 0.0 0.00 0.00 0.00 76 1018.0
20260504024900 6 174 0.0 0.0 0.00 0.00 0.00 74 1018.0
20260504021856 6 108 0.0 0.0 0.00 0.00 0.00 69 1017.7
20260504014853 7 180 0.0 0.0 0.00 0.00 0.00 66 1017.7
20260504011854 8 111 0.0 0.0 0.00 0.00 0.00 64 1017.4
20260504004850 10 162 0.0 0.0 0.00 0.00 0.00 52 1017.4
20260504001849 11 265 3.2 3.2 0.00 0.00 0.00 44 1017.4
20260503234849 13 264 1.6 1.6 0.00 0.00 0.00 43 1017.0
20260503231844 14 271 3.2 3.2 0.00 0.00 0.00 39 1016.7